EW7507 Weather Reports


Display with metric or nautical units.
time (UTC)temp
F
wind
direction
speed
MPH
gust
MPH
rain 1hr
in
rain 24hr
in
rain mn
in
humidity
%
barometer
mb
20260901061825 56 212 0.0 1.0 0.00 0.00 0.00 71 971.8
20260901061325 56 212 0.0 0.0 0.00 0.00 0.00 71 971.8
20260901060824 56 212 0.0 1.0 0.00 0.00 0.00 71 971.8
20260901060326 56 212 0.0 1.0 0.00 0.00 0.00 71 971.9
20260901055825 56 212 0.0 0.0 0.00 0.00 0.00 71 971.9
20260901055326 56 212 0.0 0.0 0.00 0.00 0.00 70 971.9
20260901054825 57 212 0.0 2.0 0.00 0.00 0.00 68 971.9
20260901054324 58 212 0.0 5.0 0.00 0.00 0.00 68 972.0
20260901053831 57 168 0.0 9.0 0.00 0.00 0.00 68 972.0
20260901053824 58 214 0.0 9.0 0.00 0.00 0.00 68 972.0
20260901052825 58 186 0.0 2.0 0.00 0.00 0.00 68 972.1
20260901052324 58 224 0.0 5.0 0.00 0.00 0.00 67 972.1
20260901051823 58 188 0.0 5.0 0.00 0.00 0.00 66 972.1
20260901051323 59 241 0.0 2.0 0.00 0.00 0.00 66 972.2
20260901050822 59 241 0.0 1.0 0.00 0.00 0.00 65 972.1
20260901050323 60 241 0.0 1.0 0.00 0.00 0.00 65 972.0
20260901045822 60 241 0.0 0.0 0.00 0.00 0.00 64 972.0
20260901045331 60 241 0.0 1.0 0.00 0.00 0.00 63 972.1
20260901045323 60 241 0.0 0.0 0.00 0.00 0.00 64 972.0
20260901044320 61 241 0.0 1.0 0.00 0.00 0.00 63 972.1
20260901043821 61 241 0.0 3.0 0.00 0.00 0.00 63 972.0
20260901043320 61 243 0.0 3.0 0.00 0.00 0.00 62 972.0
20260901042826 61 172 0.0 2.0 0.00 0.00 0.00 62 972.0
20260901042818 61 262 0.0 3.0 0.00 0.00 0.00 63 972.1
20260901041817 61 172 0.0 2.0 0.00 0.00 0.00 62 972.1
20260901041316 62 172 0.0 1.0 0.00 0.00 0.00 62 972.1
20260901040818 62 172 0.0 1.0 0.00 0.00 0.00 62 972.0
20260901040315 62 169 0.0 1.0 0.00 0.00 0.00 62 972.0
20260901035815 62 169 0.0 3.0 0.00 0.00 0.00 62 972.0
20260901035315 61 169 0.0 3.0 0.00 0.00 0.00 63 971.9
20260901034814 62 196 0.0 3.0 0.00 0.00 0.00 60 972.0
20260901034315 63 244 0.0 3.0 0.00 0.00 0.00 59 971.9
20260901033815 63 99 0.0 1.0 0.00 0.00 0.00 59 971.8
20260901033319 64 21 0.0 1.0 0.00 0.00 0.00 58 971.6
20260901033312 65 11 0.0 1.0 0.00 0.00 0.00 57 971.6
20260901032310 65 11 0.0 0.0 0.00 0.00 0.00 55 971.6
20260901031809 66 13 0.0 1.0 0.00 0.00 0.00 53 971.5
20260901031307 67 13 0.0 0.0 0.00 0.00 0.00 53 971.5
20260901030809 67 161 0.0 3.0 0.00 0.00 0.00 51 971.4
20260901030308 67 161 0.0 3.0 0.00 0.00 0.00 50 971.4
20260901025807 67 166 0.0 1.0 0.00 0.00 0.00 50 971.4
20260901025307 67 166 0.0 3.0 0.00 0.00 0.00 50 971.3
20260901024806 68 172 0.0 7.0 0.00 0.00 0.00 48 971.2
20260901024304 68 173 0.0 7.0 0.00 0.00 0.00 48 971.1
20260901023805 69 165 1.0 4.0 0.00 0.00 0.00 48 971.2
20260901023304 69 168 1.0 5.0 0.00 0.00 0.00 46 971.1
20260901022813 70 157 1.0 5.0 0.00 0.00 0.00 46 971.1
20260901022805 70 155 1.0 5.0 0.00 0.00 0.00 45 971.1
20260901021806 70 161 0.0 4.0 0.00 0.00 0.00 46 971.0
20260901021301 71 161 0.0 4.0 0.00 0.00 0.00 44 970.9
20260901020801 71 158 1.0 5.0 0.00 0.00 0.00 44 970.9
20260901020300 72 159 2.0 5.0 0.00 0.00 0.00 42 971.0
20260901015758 72 138 0.0 4.0 0.00 0.00 0.00 40 971.1
20260901015256 72 157 1.0 4.0 0.00 0.00 0.00 40 971.0
20260901014757 73 120 1.0 4.0 0.00 0.00 0.00 39 970.8
20260901014255 73 157 1.0 6.0 0.00 0.00 0.00 38 971.0
20260901013803 74 131 0.0 6.0 0.00 0.00 0.00 39 971.0
20260901013757 74 124 2.0 6.0 0.00 0.00 0.00 38 971.0
20260901013413 74 130 0.0 5.0 0.00 0.00 0.00 39 971.1
20260901012255 74 124 2.0 5.0 0.00 0.00 0.00 37 971.0
20260901011754 74 97 2.0 5.0 0.00 0.00 0.00 37 971.0
20260901011255 74 106 2.0 5.0 0.00 0.00 0.00 37 971.1
20260901010755 74 180 0.0 3.0 0.00 0.00 0.00 37 971.1
20260901010253 75 186 1.0 2.0 0.00 0.00 0.00 35 971.0
20260901005758 75 175 0.0 3.0 0.00 0.00 0.00 33 971.1
20260901005750 75 173 0.0 2.0 0.00 0.00 0.00 34 971.1
20260901005415 75 173 1.0 3.0 0.00 0.00 0.00 33 971.0
20260901004248 75 173 0.0 2.0 0.00 0.00 0.00 33 971.1
20260901003749 75 173 1.0 3.0 0.00 0.00 0.00 33 971.0
20260901003255 75 175 0.0 2.0 0.00 0.00 0.00 34 971.1
20260901003247 75 171 0.0 3.0 0.00 0.00 0.00 33 971.1
20260901002245 76 175 0.0 4.0 0.00 0.00 0.00 33 971.2
20260901001751 76 179 0.0 5.0 0.00 0.00 0.00 33 971.2
20260901001744 76 173 1.0 4.0 0.00 0.00 0.00 33 971.1
20260901000745 76 179 0.0 5.0 0.00 0.00 0.00 35 971.1
20260901000248 76 173 0.0 2.0 0.00 0.00 0.00 32 971.1
20260831235720 0 0.0 0.0 0.00 0.00 0.00
20260831140611 57 210 0.0 6.0 0.00 0.21 0.00 65 974.4
20260831140110 57 230 0.0 5.0 0.00 0.21 0.00 65 974.4
20260831135609 56 257 0.0 2.0 0.00 0.21 0.00 65 974.4
20260831135116 56 250 0.0 4.0 0.00 0.21 0.00 65 974.2
20260831135107 56 266 0.0 4.0 0.00 0.21 0.00 65 974.3
20260831134116 56 200 0.0 2.0 0.00 0.21 0.00 67 974.3
20260831134109 56 200 1.0 3.0 0.00 0.21 0.00 66 974.2
20260831133109 56 200 0.0 0.0 0.00 0.21 0.00 66 974.2
20260831132609 56 200 0.0 2.0 0.00 0.21 0.00 66 974.2
20260831132115 56 250 1.0 7.0 0.00 0.21 0.00 67 974.0
20260831132109 56 254 0.0 7.0 0.00 0.21 0.00 66 974.1
20260831131107 56 220 0.0 5.0 0.00 0.21 0.00 67 974.0
20260831130607 56 212 1.0 5.0 0.00 0.21 0.00 67 974.0
20260831130107 55 244 0.0 4.0 0.00 0.21 0.00 68 974.0
20260831125609 55 247 0.0 5.0 0.00 0.21 0.00 68 974.0
20260831125114 55 247 0.0 7.0 0.00 0.21 0.00 69 973.8
20260831125107 55 233 0.0 5.0 0.00 0.21 0.00 68 973.9
20260831124106 55 240 1.0 7.0 0.00 0.21 0.00 69 973.9
20260831123609 55 288 1.0 5.0 0.00 0.21 0.00 69 973.8
20260831123106 55 224 0.0 2.0 0.00 0.21 0.00 70 973.8
20260831122607 54 230 0.0 4.0 0.00 0.21 0.00 70 973.8
20260831122106 54 228 0.0 5.0 0.00 0.21 0.00 70 973.8
20260831121607 54 231 1.0 5.0 0.00 0.21 0.00 70 973.7
20260831121113 54 243 0.0 1.0 0.00 0.21 0.00 70 973.7
20260831121106 54 257 0.0 2.0 0.00 0.21 0.00 71 973.7
20260831120106 54 243 0.0 2.0 0.00 0.21 0.00 71 973.6
20260831115607 54 243 0.0 3.0 0.00 0.21 0.00 71 973.6
20260831115105 54 247 0.0 3.0 0.00 0.21 0.00 71 973.6
20260831114614 53 245 2.0 9.0 0.00 0.21 0.00 71 973.4
20260831114606 54 248 0.0 9.0 0.00 0.21 0.00 71 973.5
20260831113606 53 271 1.0 4.0 0.00 0.21 0.00 71 973.4
20260831113106 53 261 0.0 4.0 0.00 0.21 0.00 71 973.4
20260831112615 53 265 3.0 7.0 0.00 0.21 0.00 71 973.2
20260831112607 53 250 0.0 7.0 0.00 0.21 0.00 71 973.3
20260831111605 53 264 0.0 5.0 0.00 0.21 0.00 71 973.3
20260831111104 53 271 1.0 5.0 0.00 0.21 0.00 71 973.2
20260831110604 53 286 0.0 5.0 0.00 0.21 0.00 71 973.1
20260831110103 53 248 1.0 5.0 0.00 0.21 0.00 71 973.0
20260831105606 53 221 0.0 5.0 0.00 0.21 0.00 71 973.0
20260831105105 53 192 0.0 5.0 0.00 0.21 0.00 71 973.0
20260831104605 53 190 0.0 5.0 0.00 0.21 0.00 71 972.9
20260831104104 53 202 0.0 9.0 0.00 0.21 0.00 71 973.0
20260831103612 53 206 1.0 7.0 0.00 0.21 0.00 70 972.8
20260831103604 53 226 1.0 9.0 0.00 0.21 0.00 71 972.9
20260831102612 54 271 0.0 9.0 0.00 0.21 0.00 70 972.5
20260831102604 54 259 2.0 7.0 0.00 0.21 0.00 70 972.8
20260831101603 54 252 2.0 9.0 0.00 0.21 0.00 70 972.5
20260831101102 54 216 1.0 12.0 0.00 0.21 0.00 70 972.4
20260831100605 54 271 4.0 12.0 0.00 0.21 0.00 70 972.3
20260831095605 54 278 3.0 11.0 0.00 0.21 0.00 71 972.2
20260831095102 54 265 2.0 13.0 0.00 0.21 0.00 71 972.2
20260831094613 53 300 4.0 11.0 0.00 0.21 0.00 71 972.0
20260831094604 53 269 3.0 13.0 0.00 0.21 0.00 71 972.0
20260831093603 53 248 4.0 11.0 0.00 0.21 0.00 72 972.0
20260831093110 53 251 3.0 9.0 0.00 0.21 0.00 72 972.0
20260831093102 53 268 6.0 10.0 0.00 0.21 0.00 72 972.1
20260831092729 53 278 4.0 11.0 0.00 0.21 0.00 72 972.1
20260831091603 53 262 4.0 11.0 0.00 0.21 0.00 72 972.1
20260831091108 53 265 3.0 7.0 0.00 0.21 0.00 72 972.0
20260831091101 53 271 4.0 9.0 0.00 0.21 0.00 72 972.1
20260831090100 53 289 5.0 9.0 0.00 0.21 0.00 72 972.1
20260831085602 53 248 3.0 9.0 0.00 0.21 0.00 72 972.0
20260831085109 53 278 4.0 10.0 0.00 0.21 0.00 72 971.9
20260831085101 53 269 5.0 10.0 0.00 0.21 0.00 72 971.9
20260831084108 53 247 3.0 9.0 0.00 0.21 0.00 72 971.9
20260831084100 53 272 5.0 9.0 0.00 0.21 0.00 72 971.8
20260831083100 53 285 1.0 9.0 0.00 0.21 0.00 72 971.7
20260831082602 53 274 3.0 7.0 0.00 0.21 0.00 72 971.7
20260831082100 53 306 4.0 10.0 0.00 0.21 0.00 72 971.7
20260831081600 53 264 3.0 10.0 0.00 0.21 0.00 72 971.5
20260831081100 53 282 2.0 7.0 0.00 0.21 0.00 72 971.5
20260831080602 53 252 3.0 7.0 0.00 0.21 0.00 72 971.5
20260831080100 53 254 3.0 6.0 0.00 0.21 0.00 72 971.4
20260831075608 53 251 2.0 7.0 0.00 0.21 0.00 73 971.4
20260831075601 53 251 3.0 7.0 0.00 0.21 0.00 73 971.5
20260831074609 53 247 2.0 6.0 0.00 0.21 0.00 72 971.4
20260831074600 53 248 2.0 5.0 0.00 0.21 0.00 73 971.4
20260831073601 53 237 3.0 7.0 0.00 0.21 0.00 72 971.4
20260831073058 54 223 4.0 7.0 0.00 0.21 0.00 72 971.4
20260831072601 54 223 2.0 7.0 0.00 0.21 0.00 72 971.4
20260831072058 54 219 2.0 7.0 0.00 0.21 0.00 72 971.4
20260831071601 54 292 4.0 9.0 0.00 0.21 0.00 72 971.3
20260831071105 54 241 3.0 9.0 0.00 0.21 0.00 71 971.3
20260831071058 54 254 3.0 9.0 0.00 0.21 0.00 71 971.3
20260831070726 55 244 2.0 10.0 0.00 0.21 0.00 71 971.3
20260831065607 55 275 7.0 12.0 0.00 0.21 0.00 70 971.2
20260831065559 55 252 4.0 12.0 0.00 0.21 0.00 70 971.2
20260831065223 55 289 5.0 10.0 0.00 0.21 0.00 69 971.4
20260831064725 56 254 3.0 11.0 0.00 0.21 0.00 69 971.3
20260831063558 56 244 4.0 11.0 0.00 0.21 0.00 68 971.4
20260831063058 56 251 3.0 7.0 0.00 0.21 0.00 68 971.3
20260831062558 56 262 3.0 7.0 0.00 0.21 0.00 68 971.4